Погода в Восходе

Россия / Республика Крым     44°30′48″N   34°13′03″E
темп.,
°C
ветер,
м/с
пор.,
м/с
влажн.,
%
обл.,
%
осадки,
мм/ч
давл.,
гПа
погр.,
м
22 апреля, чт
чт2200:00+9з35791 0.0 102180
03:00+9зсз447872 0.0 102173
06:00+8сз32748 0.0 102227
09:00+11ююз226960 0.0 1022302
12:00+11ююз457490 0.2 1023398
15:00+11юз577736 0.9 1023231
18:00+11юз567617 0.6 1023405
21:00+10з22800 0.6 102424
23 апреля, пт
пт2300:00+9зюз33760 0.0 102437
03:00+9зюз227725 0.0 102323
06:00+9зюз1180100 0.0 102310
09:00+10юв1281100 0.0 1023105
12:00+11в2372100 0.0 1022256
15:00+11всв2373100 0.0 1021234
18:00+10св2274100 0.0 1020103
21:00+10юз1278100 0.1 102046
24 апреля, сб
сб2400:00+10зюз228129 0.0 101926
03:00+10зюз447830 0.0 101880
06:00+9сз33726 0.0 101829
09:00+12ссв12715 0.0 1019218
12:00+12в34676 0.0 1020551
15:00+12в237081 0.0 1020510
18:00+11ссв2368100 0.0 1021278
21:00+9ссз4573100 0.0 1023102
25 апреля, вс
вс2500:00+8ссз5567100 0.0 1023103
03:00+7ссз556240 0.0 1023117
06:00+6ссз3353100 0.0 1022145
09:00+9всв3344100 0.0 1022480
12:00+9в5452100 0.0 1021630
15:00+8вюв4458100 0.0 1021603
18:00+8вюв4359100 0.0 1021491
21:00+7ю115984 0.0 1021247
26 апреля, пн
пн2600:00+7зсз2261100 0.0 1021133
03:00+7сз2250100 0.0 102189
06:00+7ссз32520 0.0 102273
09:00+10ю12460 0.0 1022303
12:00+11ю55572 0.0 1022675
15:00+10ююз666227 0.0 1021581
18:00+10ююз447227 0.0 1020261
21:00+8юз238338 0.0 1021133